sat.trackr.live / text

‹ back to catalog

STARLINK-34711

NORAD 64912 · 2025-157J

PAYLOAD ACTIVE UNKNOWN

§ Identity

Operator
Country
US
Launch date
2025-07-26
Launch site
AFETR
Launch vehicle
Mass (kg)
RCS (m²)

Purposes: comms

External: N2YO · Heavens-Above · Gunter

§ Orbital elements

Epoch: 2026-09-20T05:18:14.613408Z

Period
93.85 min
Inclination
53.1583°
Eccentricity
0.0001349
Mean motion
15.34411561 rev/d
Perigee alt
461.7 km
Apogee alt
463.6 km
Semi-major
6,840.8 km
B*
4.9355e-4
RAAN
158.8111°
Arg perigee
98.3263°
Mean anomaly
261.7893°
Rev number
6,595

§ Raw data

STARLINK-347111 64912U 25157J   26263.22100247  .00016342  00000+0  49355-3 0  99932 64912  53.1583 158.8111 0001349  98.3263 261.7893 15.34411561 65954

JSON: /api/v1/satellites/64912 · /tle

For live sub-satellite position, see the globe view (requires WebGL).

§ Visibility from observer

Set your observer location to see the next 7 days of passes ≥ 10°. The values pass through the URL so the page stays shareable.

No JS? Fill the form by hand. The geolocation button needs JavaScript.